AirNav   Everest Fuels
 
 1417 users online  

25D Forest Lake Airport
Forest Lake, Minnesota, USA

GOING TO FOREST LAKE?


FAA INFORMATION EFFECTIVE 21 MAY 2020

Location

FAA Identifier: 25D
Lat/Long: 45-14-50.6750N 092-59-34.2750W
45-14.844583N 092-59.571250W
45.2474097,-92.9928542
(estimated)
Elevation: 929.5 ft. / 283.3 m (surveyed)
Variation: 03E (1985)
From city: 2 miles SW of FOREST LAKE, MN
Time zone: UTC -5 (UTC -6 during Standard Time)
Zip code: 55025

Airport Operations

Airport use: Open to the public
Activation date: 10/1958
Control tower: no
ARTCC: MINNEAPOLIS CENTER
FSS: PRINCETON FLIGHT SERVICE STATION
NOTAMs facility: PNM (NOTAM-D service available)
Attendance: UNATNDD
Wind indicator: yes
Segmented circle: no
Lights: MIRL RY 13/31 PRESET TO LOW SS-SR; TO INCR INTST & ACTVT PAPI & REIL RY 13 & 31 - CTAF.
Beacon: white-green (lighted land airport)
Operates sunset to sunrise.

Airport Communications

CTAF/UNICOM: 122.7
WX AWOS-3 at ANE (11 nm SW): 120.625 (763-780-9025)
WX AWOS-3 at OEO (13 nm E): 119.925 (715-294-3845)
WX AWOS-3 at 21D (16 nm S): 120.075 (651-779-5949)
WX ASOS at MIC (19 nm SW): 125.7 (763-531-2343)
WX ASOS at STP (19 nm S): 118.35 (651-312-8888)

Nearby radio navigation aids

VOR radial/distance  VOR name  Freq  Var
GEPr063/17.2GOPHER VORTAC117.3006E
MSPr024/23.5MINNEAPOLIS VOR/DME115.3002E
FCMr036/31.7FLYING CLOUD VOR/DME117.7001E
FGTr006/37.9FARMINGTON VORTAC115.7006E

 
NDB name  Hdg/Dist  Freq  Var  ID
CAMBRIDGE148/21.835001ECBG -.-. -... --.
HOPEY352/22.540003EPPI .--. .--. ..
RUSH CITY181/26.928202EROS .-. --- ...
PRINCETON123/32.136803EPNM .--. -. --

Airport Services

Fuel available: 100LL
FUEL AVBL 24 HRS SELF SERVICE WITH CREDIT CARD.
Parking: tiedowns
Airframe service: NONE
Powerplant service: NONE
Bottled oxygen: NONE
Bulk oxygen: NONE

Runway Information

Runway 13/31

Dimensions: 2700 x 75 ft. / 823 x 23 m
Surface: asphalt, in good condition
Runway edge lights: medium intensity
Operational restrictions: STEEP DROP IN TERRAIN ALONG NORTHEAST SIDE OF RY.
RUNWAY 13  RUNWAY 31
Latitude: 45-15.009500N45-14.679667N
Longitude: 092-59.782000W092-59.360500W
Elevation: 925.2 ft.929.5 ft.
Traffic pattern: leftleft
Markings: nonprecision, in good conditionnonprecision, in good condition
Visual slope indicator: 4-light PAPI on left (3.50 degrees glide path)4-light PAPI on left (3.50 degrees glide path)
Runway end identifier lights: yesyes
Touchdown point: yes, no lightsyes, no lights

Airport Ownership and Management from official FAA records

Ownership: Publicly-owned
Owner: CITY OF FOREST LAKE
1408 LAKE STREET SOUTH
FOREST LAKE, MN 55025
Phone 651-464-3550
Manager: RICK ASHBACH
1408 LAKE STREET SOUTH
FOREST LAKE, MN 55025
Phone (651) 209-9754
EMAIL ADDRESS: RICK@ASHBACH.COM (ALL LOWER CASE)

Airport Operational Statistics

Aircraft based on the field: 33
Single engine airplanes: 32
Helicopters: 1
    
Aircraft operations: avg 22/day *
81% local general aviation
19% transient general aviation
* for 12-month period ending 30 April 2017

Additional Remarks

CALM WIND RY 13.
FOR CD CTC MINNEAPOLIS APCH AT 612-726-9086.

Instrument Procedures

There are no published instrument procedures at 25D.

Some nearby airports with instrument procedures:

KANE - Anoka County-Blaine Airport (Janes Field) (11 nm SW)
KOEO - L O Simenstad Municipal Airport (13 nm E)
21D - Lake Elmo Airport (16 nm S)
KMIC - Crystal Airport (19 nm SW)
KSTP - St Paul Downtown Airport Holman Field (19 nm S)
 
Loc | Ops | Rwys | IFR | FBO | Links
Com | Nav | Svcs | Stats | Notes
Area around 25D (Forest Lake Airport)
 
Road maps at: MapQuest Bing Google
 
Aerial photo
WARNING: Photo may not be current or correct
Aerial photo of 25D (Forest Lake Airport)
Photo by Carl Ziegler
Photo taken 23-Sep-2017
looking east.

Do you have a better or more recent aerial photo of Forest Lake Airport that you would like to share? If so, please send us your photo.

 
Sectional chart

 
Airport distance calculator
Flying to Forest Lake Airport? Find the distance to fly.

From to 25D

Sunrise and sunset
Times for 02-Jun-2020
 Local
(UTC-5)
 Zulu
(UTC)
Morning civil twilight04:5109:51
Sunrise05:2710:27
Sunset20:5301:53
Evening civil twilight21:3002:30

Current date and time
Zulu (UTC)  02-Jun-2020 16:53:01
Local (UTC-5)  02-Jun-2020 11:53:01
 
METAR
KANE 
12nm SW 
021545Z VRB04KT 10SM SCT150 BKN250 29/12 A2981
KOEO 
13nm E 
021635Z AUTO 02006KT 10SM CLR 30/09 A2984 RMK AO2 T02980094
K21D 
16nm S 
021626Z AUTO 02003KT 10SM CLR 29/15 A2983 RMK AO2
KMIC 
19nm SW 
021553Z 07005KT 10SM CLR 29/11 A2980 RMK AO2 SLP085 T02890111
KSTP 
19nm S 
021553Z 07006KT 10SM CLR 31/14 A2980 RMK AO2 SLP083 T03060144
KRNH 
20nm E 
021635Z AUTO 36003KT 10SM CLR 30/13 A2982 RMK AO2 T02980132
KCBG 
22nm NW 
021636Z AUTO 05004KT 10SM CLR 31/16 A2982 RMK AO2 LTG DSNT NW
TAF
NOTAMs
Click for the latest NOTAMs
NOTAMs are issued by the DoD/FAA and will open in a separate window not controlled by AirNav.

 

 
 

FBO, Fuel Providers, and Aircraft Ground Support

  
 Business Name 
 
 Contact 
 
 Services / Description 
 
Fuel Prices
 
Comments
  
City of Forest Lake 651-592-9127
651-209-9745
[web site]
[email]
Aviation fuel, Aircraft parking (ramp or tiedown), Pilots lounge / snooze room, Computerized weather, Internet access, Restrooms, Showers

More info about City of Forest Lake
Phillips 66
100LL
SS $3.24 
 Updated 01-Jun-2020
 
   1 read write
SS=Self service
Update Fuel Prices
 

Would you like to see your business listed on this page?

 If your business provides an interesting product or service to pilots, flight crews, aircraft, or users of the Forest Lake Airport, you should consider listing it here.  To start the listing process, click on the button below
 
Add a business
 

Other Pages about Forest Lake Airport

Update a link
 
Copyright © AirNav, LLC. All rights reserved. Privacy Policy  Contact